Hourly Data Report for June 13, 2018

OTTAWA INTL A
ONTARIO
Current Station Operator: NAVCAN

45°19'00.000" N
75°40'00.000" W
114.90 m
6106001
71628
YOW

Download Data

Hourly Data (June 2018)
Hourly Data Report for June 13, 2018
TIME
LST
Temp Definition
°C
Dew Point Definition
°C
Rel Hum Definition
%
Precip. Amount Definition
mm

Wind Dir Definition
10's deg

Wind Spd Definition
km/h
Visibility Definition
km
Stn Press Definition
kPa
Hmdx Definition


Wind Chill Definition


Weather Definition


00:00 17.2 10.6 65   22 10 24.1 99.75     LegendNANA
01:00 16.3 10.9 70   22 4 24.1 99.74     Mainly Clear
02:00 15.1 11.4 78   20 8 24.1 99.73     LegendNANA
03:00 14.6 11.6 82   22 8 24.1 99.70     LegendNANA
04:00 13.7 11.5 86   17 4 24.1 99.65     Mainly Clear
05:00 14.5 12.0 85   18 7 24.1 99.61     LegendNANA
06:00 16.9 13.4 80   21 7 24.1 99.58     LegendNANA
07:00 20.6 14.7 68   22 17 24.1 99.54     Mostly Cloudy
08:00 19.7 15.5 76   20 14 24.1 99.52     Rain
09:00 17.5 16.1 91   21 11 9.7 99.48     Rain, Fog
10:00 18.1 16.4 90   21 5 12.9 99.41     Cloudy
11:00 19.4 16.8 85   18 4 24.1 99.37     LegendNANA
12:00 20.1 17.3 84   19 18 16.1 99.30 26   LegendNANA
13:00 19.0 17.5 91   18 16 24.1 99.22     Rain
14:00 19.6 18.5 93   17 12 24.1 99.05     Rain
15:00 20.1 18.3 89   18 18 24.1 98.95 26   LegendNANA
16:00 20.3 18.3 88   20 18 16.1 98.92 27   Cloudy
17:00 19.6 18.4 93   21 24 8.1 98.92     Thunderstorms, Rain, Fog
18:00 17.4 15.6 89   19 15 24.1 98.72     LegendNANA
19:00 17.1 15.9 92   23 18 24.1 98.78     Mostly Cloudy
20:00 16.3 15.4 94   22 10 24.1 98.77     LegendNANA
21:00 16.1 15.3 95   18 13 24.1 98.77     LegendNANA
22:00 16.1 14.6 91   24 17 24.1 98.76     Mainly Clear
23:00 15.4 13.4 88   23 19 24.1 98.74     LegendNANA

Notes on Data Quality.

Legend

  • E = Estimated
  • M = Missing
  • NA = Not Available*
  • [empty] = Indicates an unobserved value
Date modified: